Location: Boda
(47.1872°N, 9.5454°E)
Time: 17:47:36
(UTC+00:00)

Okean 2 - Pass Details

Date: 14 May 2021
Orbit: 558 x 577 km, 82.5° (Epoch: 15 June)

Event Time Altitude Azimuth Distance (km) Brightness Sun altitude
Exits shadow 00:53:16 46° 260° (W) 787 3.8 -20.8°
Maximum altitude 00:53:45 48° 283° (WNW) 761 3.9 -20.7°
Drops below altitude 10° 00:57:48 10° 359° (N) 1,896 7.0 -20.5°
Sets 01:00:04 0° 5° (N) 2,797 8.2 -20.3°
